Location: Asheville, NC
(35.6000°N, 82.5500°W)
Time: 20:39:14
(UTC-04:00)

AO-7 - Pass Details

Date: 10 March 2018
Orbit: 1440 x 1459 km, 101.7° (Epoch: 20 June)

Event Time Altitude Azimuth Distance (km) Brightness Sun altitude
Rises 06:14:23 0° 1° (N) 4,547 ? -7.7°
Reaches altitude 10° 06:18:24 10° 342° (NNW) 3,562 ? -6.8°
Maximum altitude 06:23:06 17° 307° (NW) 3,054 ? -5.9°
Drops below altitude 10° 06:27:49 10° 272° (W) 3,550 ? -4.9°
Enters shadow 06:30:26 - 258° (WSW) 4,146 ? -4.4°
